Wind_Speed
10 10 11 11 12 12 12 11 10 10 11 12 14 16 17 18 19 20 21 22 23 24 23 20 20 21 20 19 19 16 14 13 12 10 9 9 8 9 10 10 11 12 15 18 20 18 20 24 24 23 24 27 30 30 29 29 28 28 29 28 27 27 27 26 24 22 22 20 20 21 22 22 23 24 24 24 24 24 23 21 20 20 19 17 17
10 10 11 11 11 12 11 10 10 10 11 12 13 16 17 18 19 19 20 21 22 23 22 21 20 20 20 19 18 17 14 12 11 10 9 8 7 8 9 10 10 11 12 14 15 15 18 22 22 21 21 22 24 25 26 27 27 27 27 27 28 26 25 24 23 21 21 19 19 21 21 22 23 24 24 24 23 23 22 21 20 20 19 18 17
10 10 11 11 11 11 10 9 9 10 10 12 13 16 17 17 18 19 19 20 21 21 21 21 20 20 21 19 18 17 15 12 11 10 9 8 8 9 10 11 11 11 11 10 9 9 12 14 14 17 19 19 20 22 24 23 23 26 26 26 27 26 23 23 23 21 20 20 20 21 22 22 22 23 24 24 24 23 21 21 21 19 18 17 16
10 10 10 10 10 10 10 9 9 10 11 12 14 15 16 17 17 18 18 19 19 20 20 21 20 20 20 18 17 17 14 12 12 11 9 9 9 9 10 10 11 10 9 8 6 4 7 9 10 13 16 19 21 24 26 23 21 24 25 24 24 24 21 21 22 21 21 20 19 21 22 22 23 24 24 24 24 22 22 22 22 20 19 18 17
10 10 9 9 10 10 10 10 10 10 11 12 13 15 15 16 16 17 18 18 18 18 19 20 19 19 18 17 17 16 13 12 12 10 9 9 8 8 8 9 10 10 9 7 5 4 4 5 6 8 12 17 22 22 22 21 19 20 21 21 22 21 20 20 19 20 21 21 20 22 23 23 24 24 23 23 23 23 24 24 21 20 20 19 19
10 9 9 9 10 10 11 10 11 11 11 12 13 14 14 15 16 17 17 17 17 17 18 19 18 19 19 17 17 15 12 13 13 11 9 8 7 7 7 8 9 10 8 6 5 4 5 4 3 6 8 12 14 14 14 14 14 14 16 18 20 20 20 19 18 19 21 21 23 24 24 24 24 24 23 24 24 23 23 22 21 21 21 20 20
9 9 9 10 10 10 11 11 11 11 11 11 12 13 14 14 15 16 17 17 17 17 18 18 18 19 19 17 15 13 12 14 14 12 9 8 7 7 7 7 8 9 9 7 6 6 5 4 3 5 5 5 6 7 8 9 9 11 14 17 19 19 19 18 19 20 20 21 23 24 23 24 24 25 25 25 24 24 22 21 20 20 19 19 20
9 9 10 10 10 10 10 10 11 11 11 11 11 12 13 14 15 16 17 17 17 17 17 18 18 19 18 16 14 13 12 13 13 12 11 9 8 7 7 7 6 6 7 7 7 7 6 5 3 3 3 3 4 4 6 9 10 11 14 15 16 17 18 18 19 20 21 21 22 23 23 23 23 24 25 24 24 23 22 21 20 17 17 19 19
9 10 10 10 10 10 10 10 11 11 11 11 11 11 12 13 14 15 16 17 17 18 18 18 18 18 18 15 13 13 12 12 12 12 12 11 9 9 9 8 7 5 4 4 5 6 6 6 5 5 5 4 4 4 6 9 10 11 12 12 13 15 17 18 19 20 20 21 21 22 23 24 23 23 23 23 24 23 21 20 19 18 18 19 19
9 10 10 10 10 10 10 10 11 11 11 11 11 11 12 12 13 15 16 16 17 18 18 18 18 18 17 14 11 11 12 11 10 9 10 11 10 10 10 11 10 9 6 5 4 5 5 6 6 6 6 6 6 6 7 8 9 11 12 13 14 15 16 17 18 19 19 21 21 21 22 24 24 24 24 23 24 23 21 20 20 20 21 22 21
9 9 10 10 10 10 11 11 11 11 11 11 11 12 12 12 13 14 16 16 16 17 18 19 19 18 17 14 11 10 11 11 9 7 8 9 10 11 11 11 11 11 9 8 7 6 6 6 7 7 7 8 9 9 9 10 11 12 12 12 14 14 15 15 16 18 20 21 22 22 23 24 24 26 27 25 25 24 21 21 21 21 21 21 20
9 9 10 10 11 12 12 12 12 12 11 11 12 12 12 13 14 15 16 17 17 17 18 19 20 20 19 17 14 12 11 10 8 6 6 7 9 10 11 11 11 11 11 10 9 9 9 9 8 8 9 10 11 11 11 12 13 13 12 13 13 14 16 16 16 18 20 21 21 22 24 25 25 27 27 27 26 25 22 21 21 21 21 21 20
9 10 11 11 12 12 12 12 12 12 11 11 12 13 13 14 15 16 16 17 17 17 18 18 19 19 19 18 16 14 12 10 8 7 7 7 8 10 11 12 14 14 13 13 12 11 11 10 9 8 8 9 10 11 12 13 14 14 13 14 14 15 17 18 17 17 18 18 19 22 23 25 26 27 28 27 26 25 23 21 22 22 23 23 21
9 10 11 12 12 12 12 12 12 12 12 12 12 13 14 15 16 16 17 17 17 17 18 18 19 19 18 17 16 15 13 12 10 8 7 7 8 9 10 12 14 16 16 14 12 10 10 11 11 9 7 6 6 8 9 10 12 13 13 15 16 17 18 18 18 18 18 18 19 21 22 24 27 28 28 27 26 25 23 23 23 24 24 23 21
9 10 11 12 12 12 12 12 12 12 12 12 12 13 15 15 16 16 16 16 16 17 17 18 19 19 18 18 17 15 13 11 10 9 8 8 10 10 10 11 12 12 13 13 11 10 9 9 9 9 8 6 6 7 7 7 8 9 11 14 17 19 19 19 19 19 18 18 19 21 24 26 27 27 26 26 26 24 23 23 23 24 26 24 21
9 10 11 11 12 12 11 11 11 11 11 12 12 13 14 14 15 15 15 16 16 17 17 17 17 17 18 18 18 18 16 13 9 9 10 10 11 12 13 13 13 12 11 10 10 11 11 11 10 9 6 6 7 8 8 8 9 9 11 13 15 18 20 21 21 20 19 18 17 19 22 23 24 24 23 24 26 26 24 23 22 23 25 24 20
9 10 11 11 11 10 10 10 10 10 11 11 12 12 13 13 13 14 14 15 15 15 15 15 15 15 16 17 17 17 17 15 11 10 10 11 11 12 13 14 15 14 13 12 11 11 11 13 11 6 4 5 6 5 6 8 10 11 12 12 13 14 16 18 20 21 20 20 18 17 19 20 22 23 21 21 24 25 24 22 21 20 21 21 20
10 10 10 9 9 9 9 9 9 9 10 10 11 11 11 11 12 12 12 12 12 12 13 13 14 14 13 14 15 15 15 14 13 11 10 10 10 10 11 13 12 12 12 12 12 11 11 11 11 8 7 8 8 6 6 6 6 8 11 12 13 15 14 15 18 19 19 20 19 19 20 20 21 22 21 21 22 21 20 19 18 18 17 18 19
9 9 8 7 7 7 7 8 8 9 9 10 10 10 10 10 10 11 11 11 11 12 13 13 13 13 13 13 13 14 14 13 13 12 11 9 8 8 9 10 11 11 11 11 12 12 11 11 10 11 14 15 14 12 12 10 8 8 10 11 14 16 16 16 18 18 16 16 18 20 20 20 20 21 22 23 22 21 20 19 19 19 19 19 20
8 7 6 6 6 6 7 8 8 8 9 8 8 9 9 10 10 10 10 10 11 11 12 12 13 13 14 14 13 13 13 13 13 13 12 10 9 8 8 10 10 10 10 11 11 12 12 11 11 11 12 15 16 17 17 16 14 13 13 12 12 15 16 17 19 20 18 18 19 21 21 21 21 22 23 23 22 22 23 23 23 22 22 21 22
6 6 5 5 6 6 7 8 7 7 7 7 7 8 9 10 10 10 10 11 11 11 11 11 12 12 13 13 13 13 13 13 14 14 15 15 14 13 13 13 13 12 12 12 12 13 13 13 12 12 12 13 14 16 19 20 19 18 17 16 15 15 17 18 19 21 22 22 21 22 23 24 25 25 25 25 24 24 25 25 24 24 24 25 25
5 5 4 5 6 6 6 6 5 5 6 7 7 8 9 9 10 10 10 11 11 11 11 11 11 12 12 12 13 13 13 13 14 15 15 16 16 16 17 17 17 17 16 16 15 16 16 16 15 15 15 15 15 15 17 19 20 20 20 20 20 19 20 22 22 21 22 22 22 23 25 27 29 30 30 29 28 27 25 25 25 25 26 27 28
4 3 3 4 4 4 4 4 4 5 6 7 7 8 9 9 9 10 10 10 11 11 11 12 12 12 12 12 12 12 12 13 13 13 14 14 14 15 15 16 16 16 16 16 16 17 17 17 17 17 17 17 16 15 15 16 18 19 20 21 22 22 23 24 24 24 24 24 24 24 25 27 29 30 29 28 27 25 24 24 25 26 26 27 28
2 1 2 2 3 3 3 4 5 5 6 7 7 8 9 9 9 9 9 9 10 10 10 11 11 11 12 12 12 12 12 12 13 13 13 14 14 14 14 14 14 14 14 14 14 14 14 15 15 15 16 17 17 17 16 16 17 18 19 20 21 22 23 24 24 25 26 26 26 26 26 26 26 27 26 24 24 24 24 25 26 26 26 27 29
0 1 1 2 2 2 3 4 5 6 6 7 7 7 8 8 8 8 9 9 9 10 10 11 11 12 12 12 13 14 15 15 16 16 16 16 15 15 15 15 15 15 15 15 15 14 14 14 14 14 14 15 16 17 18 18 18 19 20 21 21 22 22 23 24 25 26 27 27 27 27 27 27 27 27 26 26 25 25 26 27 28 29 30 30
1 0 1 1 2 2 3 4 5 6 6 6 6 6 7 7 8 9 9 10 10 11 12 13 13 14 15 16 17 18 18 19 19 19 19 19 18 18 18 18 18 17 17 17 17 17 17 16 16 15 15 15 15 15 16 17 18 18 19 19 20 20 21 22 23 23 23 24 24 24 25 25 26 27 27 26 25 25 26 26 28 29 31 32 32
1 1 0 1 2 3 4 4 4 4 4 5 6 8 8 9 10 10 10 11 12 13 14 15 15 16 18 19 20 20 20 20 20 20 20 21 21 21 21 20 20 19 18 18 17 17 17 17 17 17 17 17 17 16 16 16 16 17 17 17 17 17 18 18 20 21 21 21 21 22 22 23 24 26 26 26 26 26 27 28 29 30 32 33 33
2 1 1 2 3 3 3 3 4 5 7 8 9 10 10 11 11 11 12 13 14 14 15 16 16 18 19 19 20 19 19 19 20 20 21 22 22 22 22 22 21 21 20 20 19 18 18 18 18 18 18 19 18 18 18 17 17 17 16 16 16 16 16 15 16 17 18 19 21 23 23 24 25 25 26 26 26 26 26 26 28 28 29 30 31
2 2 2 2 1 1 3 5 7 8 9 10 10 10 10 11 11 12 12 13 14 14 15 15 16 17 18 17 17 17 17 18 20 21 21 22 22 23 23 23 23 23 23 22 21 20 19 18 18 18 18 18 18 18 18 17 17 17 17 16 16 15 15 14 14 14 14 15 17 20 22 23 24 24 25 24 23 22 22 22 22 22 22 23 24
3 2 1 1 3 5 6 8 9 10 9 9 10 10 10 11 11 11 12 12 13 13 13 13 14 15 15 15 15 16 17 19 20 20 21 21 22 23 23 24 24 24 24 24 22 21 20 19 18 18 18 18 18 18 18 18 17 17 17 17 17 16 15 14 14 13 13 13 13 14 15 17 19 19 20 18 17 16 16 14 13 12 12 13 14
2 1 2 5 6 8 9 10 11 10 9 9 9 10 10 10 10 10 10 11 11 10 11 11 12 12 13 13 14 15 17 18 18 19 19 20 21 22 23 23 24 24 24 24 23 22 21 21 20 19 18 18 18 18 18 18 18 18 17 17 17 16 15 14 13 13 12 12 11 11 11 11 12 13 13 13 15 16 12 7 6 5 4 4 5
3 3 5 6 7 9 10 10 10 10 9 8 8 9 9 9 9 9 9 9 9 9 10 11 11 12 12 13 14 14 15 16 17 17 18 19 20 20 21 22 23 23 24 24 23 23 23 22 21 20 19 19 18 18 18 18 19 19 18 17 16 15 15 14 13 12 11 11 10 9 9 8 7 7 7 7 9 12 10 7 8 7 5 3 2
7 7 7 7 8 8 8 8 8 8 7 6 6 7 7 7 7 8 8 8 8 9 9 10 11 11 12 13 13 14 15 16 16 17 18 18 19 19 20 21 21 21 22 23 23 23 23 23 22 21 21 20 19 19 19 19 19 19 18 18 17 15 15 14 14 13 11 10 9 8 8 7 5 4 3 2 2 3 4 6 8 7 6 3 1
8 9 9 9 9 8 7 7 6 6 5 4 3 4 5 6 6 6 6 7 8 8 9 10 11 11 12 12 13 13 14 15 16 17 18 18 19 20 20 20 19 19 20 21 22 22 23 23 23 22 22 21 20 20 19 19 19 18 18 18 17 16 15 15 15 14 12 9 8 7 6 5 4 3 3 2 2 2 3 4 5 4 3 2 2
8 9 9 9 8 8 6 5 5 4 4 3 2 2 3 4 4 5 5 6 7 7 8 9 10 11 11 12 12 12 13 14 15 17 17 18 19 20 19 19 18 18 19 20 20 21 22 22 22 22 22 22 21 21 20 19 18 18 18 17 16 16 15 15 14 14 12 10 9 8 6 5 4 3 3 3 3 3 3 3 3 2 3 3 3
9 8 8 7 6 5 4 3 2 2 2 2 2 2 3 3 3 4 4 5 6 7 8 8 10 10 11 11 11 12 13 14 15 16 17 17 18 18 18 18 19 19 20 20 21 21 21 21 21 21 22 22 22 22 21 20 19 18 17 16 16 15 14 13 13 13 12 10 9 8 7 5 5 4 4 4 3 3 3 2 3 4 5 6 6
9 8 7 6 4 3 2 1 1 1 1 1 2 3 3 4 4 5 6 6 7 7 8 8 9 10 11 11 12 12 13 14 15 16 17 17 17 17 18 19 20 20 20 21 21 21 20 20 20 20 21 21 22 22 22 21 20 19 17 16 15 15 13 12 12 11 10 9 8 8 7 5 5 5 5 4 4 3 2 1 1 4 6 6 7
8 7 6 5 3 2 2 1 1 1 1 1 2 3 3 4 5 6 7 7 7 8 8 9 9 10 11 11 12 13 14 15 15 16 16 17 17 18 19 20 20 20 20 21 21 21 20 20 20 20 20 21 21 21 21 20 20 19 18 16 15 14 13 11 10 10 9 8 7 7 7 6 4 4 3 3 3 4 4 4 4 5 6 7 8
7 6 5 4 3 3 2 2 1 1 1 2 2 3 3 4 5 6 6 6 7 7 7 8 9 9 10 10 11 12 13 13 14 15 16 17 17 18 19 19 19 19 20 20 20 20 20 21 20 20 20 20 21 21 21 20 20 19 18 16 15 14 13 11 10 9 8 7 6 6 6 6 6 6 5 5 5 6 7 7 8 8 8 8 8
6 5 4 4 4 3 2 2 1 1 2 2 3 3 4 4 5 5 5 6 6 6 6 7 8 8 8 9 10 10 11 12 13 15 16 17 18 18 18 18 19 19 19 20 20 20 20 20 20 20 20 20 20 20 20 20 20 19 18 17 16 15 14 13 11 10 9 7 6 5 5 6 7 7 7 6 6 7 8 9 10 11 10 9 8
6 5 5 4 4 3 2 1 1 1 2 3 3 3 4 5 5 5 5 5 5 5 6 7 7 7 8 8 9 10 11 12 14 15 16 17 18 18 19 18 19 19 19 19 19 19 19 20 20 20 20 20 19 19 19 19 20 20 19 18 17 16 15 14 13 12 11 9 7 5 5 7 8 8 7 7 6 6 8 9 10 10 11 10 9
6 5 5 5 4 4 3 2 1 1 2 3 3 2 3 4 5 5 5 5 5 6 7 7 7 7 7 7 8 9 10 12 13 14 15 16 17 18 18 18 19 19 19 19 19 19 20 20 20 20 19 19 19 19 18 18 18 18 19 19 18 17 16 16 15 14 14 13 11 7 6 7 9 10 10 10 8 7 7 8 9 9 10 11 10
5 5 5 5 5 4 3 1 1 2 2 3 3 3 4 5 5 6 6 6 6 7 7 6 6 6 6 6 7 9 10 11 12 13 15 16 16 17 17 18 18 18 19 19 19 19 19 19 19 19 19 19 19 19 19 18 18 18 18 18 18 17 16 16 16 16 15 14 13 12 9 8 9 10 11 11 10 8 7 8 9 10 11 11 10
6 6 5 5 5 4 2 2 2 2 2 3 4 5 5 6 6 7 7 7 7 6 6 5 5 6 6 6 8 9 9 10 12 13 14 16 16 16 17 17 17 18 18 18 19 19 18 18 18 18 19 19 19 19 19 19 18 17 17 17 17 17 16 15 16 15 15 14 13 12 11 9 8 7 8 9 9 8 7 7 9 10 10 10 10
8 7 6 6 5 4 3 3 3 2 2 3 4 5 5 6 7 7 7 7 7 6 6 6 6 6 7 8 9 10 11 12 12 13 14 15 16 16 16 16 17 17 17 18 18 18 18 18 18 18 18 18 19 19 19 19 18 18 17 16 16 16 15 15 14 14 14 14 12 11 11 10 8 6 6 6 7 7 6 5 6 7 9 9 9
7 7 6 6 6 5 4 4 4 4 3 3 4 4 4 4 5 6 7 7 7 7 7 7 7 7 8 9 10 11 11 12 13 13 14 14 15 15 16 16 17 17 17 17 17 17 17 18 18 18 18 18 18 18 18 18 17 18 17 17 16 16 15 15 14 13 13 13 13 12 11 10 9 8 7 7 7 7 7 6 6 6 7 8 9
7 7 6 6 5 5 5 5 5 5 4 3 4 4 4 4 5 6 7 8 8 7 8 8 8 8 9 9 10 10 11 12 12 13 13 14 15 16 16 16 16 16 16 16 16 15 15 16 17 18 18 18 17 17 17 17 17 17 18 18 17 17 16 15 15 14 13 13 13 12 12 12 11 10 10 9 8 8 7 7 6 6 6 8 9
8 8 7 5 5 5 6 5 4 4 3 3 4 5 5 5 5 6 7 8 9 9 8 8 9 9 10 10 10 11 11 11 12 12 13 14 15 15 15 16 16 16 16 16 16 16 15 14 15 17 18 18 18 17 17 17 17 18 18 18 19 18 17 16 15 15 14 13 13 13 13 13 12 12 12 11 10 9 8 7 8 8 8 9 10
8 7 6 5 4 5 6 5 5 4 4 4 5 6 6 6 6 6 7 8 8 9 9 9 10 10 10 11 11 11 12 12 12 13 13 14 14 15 15 16 16 16 16 16 16 16 16 15 14 15 16 17 17 18 18 17 17 17 17 18 18 18 18 17 16 16 15 15 14 13 13 13 13 13 13 13 12 11 10 9 9 10 9 10 10
8 8 6 5 5 6 6 6 5 5 5 5 6 6 6 6 6 7 8 9 9 9 9 9 10 10 11 11 12 12 12 12 13 13 13 14 15 15 15 16 16 16 16 16 16 16 16 16 15 15 15 15 16 18 18 18 17 17 17 17 17 17 18 18 17 16 16 15 15 14 14 14 14 14 14 14 14 13 12 11 11 11 11 11 11
8 8 7 6 7 8 7 7 7 7 7 8 7 6 6 6 6 6 7 9 10 10 10 10 10 10 10 11 11 11 11 12 13 13 13 14 14 15 15 16 16 17 17 17 17 16 16 16 16 16 16 16 16 16 18 18 18 17 17 17 17 17 17 17 17 17 16 16 15 15 15 14 14 15 15 15 15 14 14 13 13 13 13 13 13
Wind_Direction
262 266 271 279 288 293 296 302 308 312 316 321 326 329 330 330 330 332 333 335 339 342 342 344 347 348 350 350 349 349 347 344 347 351 340 319 300 295 294 294 294 287 283 281 275 262 250 247 249 246 239 233 229 227 227 227 224 222 225 225 221 218 217 214 213 217 216 212 214 218 218 218 216 214 215 218 219 222 221 218 219 223 223 225 227
261 266 272 281 288 291 297 304 310 312 317 323 326 329 331 330 331 334 336 338 341 343 344 346 348 349 352 355 358 358 352 345 349 357 351 335 323 319 320 324 323 312 301 293 280 264 249 245 245 246 243 235 227 229 234 231 226 223 222 222 219 213 210 209 209 214 213 209 215 220 220 220 217 215 218 219 219 221 221 218 219 222 224 226 227
262 266 273 281 287 292 299 304 308 313 316 322 326 327 328 329 331 336 339 340 341 343 345 348 351 351 352 355 358 1 1 354 347 345 338 333 329 326 326 330 331 330 330 323 306 281 264 252 241 242 242 230 219 223 229 231 231 227 222 221 216 205 202 206 208 211 210 209 216 220 222 225 222 218 218 219 219 216 215 220 220 220 225 226 224
260 265 272 281 288 294 299 301 306 310 313 319 324 325 325 328 332 337 341 341 340 342 345 349 354 355 353 354 354 356 3 2 348 336 331 328 323 320 320 319 322 331 340 343 342 315 282 264 242 237 237 229 224 224 223 226 231 229 222 218 209 199 201 212 212 207 207 209 215 218 221 223 223 221 220 220 220 212 211 221 221 218 221 220 219
258 265 275 285 291 295 296 298 303 307 311 318 322 322 323 327 332 336 341 341 338 339 343 348 355 358 356 354 352 353 3 6 352 338 334 331 324 323 325 321 319 321 322 322 326 330 314 285 248 236 237 234 232 231 232 233 230 225 216 205 201 201 206 215 212 205 206 211 214 216 218 220 220 222 221 218 216 212 213 219 219 218 220 219 221
261 271 282 288 291 292 293 297 301 305 311 317 318 319 321 325 330 333 337 339 337 337 341 346 353 358 358 355 352 352 359 3 356 346 345 343 340 343 337 333 334 330 325 315 309 327 338 324 252 224 239 249 241 232 236 237 223 213 203 194 201 209 210 213 213 209 211 216 218 219 219 220 220 219 216 214 212 214 218 219 217 218 221 222 225
267 276 285 288 288 290 292 296 300 304 311 315 315 317 320 324 326 328 331 334 336 336 337 341 347 355 358 355 353 353 355 359 358 352 349 348 352 0 352 343 347 347 348 344 335 342 348 334 288 239 238 263 251 225 228 234 219 206 202 201 209 215 214 216 217 216 221 225 228 230 224 219 219 216 213 213 210 210 214 218 220 223 225 225 225
272 280 284 285 287 289 291 295 299 305 310 313 315 318 321 322 322 323 326 329 332 333 334 337 340 348 354 353 352 355 356 0 2 355 350 346 342 348 350 347 348 344 347 348 343 343 351 357 338 298 282 281 263 232 222 228 224 216 210 210 215 215 213 218 221 223 227 229 231 235 230 223 221 218 215 213 210 209 213 217 217 219 224 226 223
276 280 281 283 287 289 290 295 298 304 309 312 315 320 322 322 322 323 326 327 330 333 334 336 336 340 347 349 351 356 355 356 358 354 349 344 338 335 333 334 334 323 309 317 330 335 336 343 343 328 322 311 282 243 229 228 225 224 218 214 220 222 218 220 224 226 229 231 233 233 230 227 225 222 218 216 214 213 215 219 217 212 214 218 217
277 280 282 285 288 289 290 294 297 302 308 310 314 320 323 324 325 326 329 331 334 336 337 339 337 336 338 341 348 356 352 348 348 348 345 340 334 328 324 322 323 318 298 287 305 320 316 317 321 319 313 300 278 253 251 248 235 232 230 222 223 227 223 222 226 228 229 233 235 234 232 230 226 222 219 219 219 217 213 217 220 216 214 216 214
279 284 288 290 291 292 292 294 298 301 305 309 314 320 324 325 328 329 330 333 336 337 340 342 341 339 337 338 346 350 345 340 339 338 337 334 327 319 315 311 310 310 304 298 299 299 295 292 291 289 281 277 271 256 248 247 239 238 242 239 238 239 235 229 230 234 235 235 235 235 233 229 225 223 220 218 222 223 218 216 220 221 221 221 219
284 289 293 294 294 295 294 294 297 300 303 309 314 319 323 327 330 330 328 330 332 336 341 343 344 344 343 344 347 343 334 334 334 322 311 312 313 313 310 303 299 298 294 290 289 287 289 288 284 282 275 271 272 265 255 249 243 239 239 242 247 251 252 247 239 237 241 241 240 240 235 228 222 222 222 222 225 227 222 218 221 223 224 223 220
286 290 293 296 294 292 292 292 295 298 302 308 312 318 323 326 328 328 326 328 332 336 341 343 346 348 347 345 344 338 333 334 330 315 306 308 307 306 306 301 297 295 289 283 279 281 286 288 291 298 291 277 271 268 265 259 251 246 243 243 243 244 251 256 253 247 247 246 245 245 240 231 225 224 224 221 221 225 226 224 222 221 221 219 216
287 291 292 294 291 290 290 291 295 298 303 309 315 319 321 322 324 326 327 331 334 338 341 343 346 349 348 346 344 340 337 337 338 339 345 347 339 326 315 307 301 298 296 290 282 283 292 296 297 297 288 277 272 266 265 264 257 253 251 249 245 241 244 254 260 260 257 251 249 247 240 234 231 228 225 221 219 223 229 230 226 221 218 218 216
286 290 293 293 291 290 291 292 298 303 307 313 317 319 321 323 325 327 330 333 336 340 343 345 347 348 348 349 349 347 344 343 349 360 3 357 356 354 347 337 326 315 306 297 288 284 289 299 306 297 277 268 268 261 261 265 261 257 255 253 249 244 244 248 254 258 258 254 252 243 233 232 234 231 228 227 224 223 227 233 233 228 223 220 219
285 291 295 295 294 294 295 297 302 307 311 315 318 320 323 325 327 331 333 335 338 341 344 347 348 349 351 353 353 353 354 355 354 355 351 346 349 355 356 352 350 345 334 317 302 290 283 289 306 316 310 298 289 279 274 274 271 264 260 261 259 252 249 249 250 253 255 256 256 247 234 232 233 231 231 231 227 224 226 231 234 232 229 225 222
289 294 297 299 299 300 301 303 308 312 315 319 321 323 326 329 334 337 339 339 340 340 341 345 350 353 355 355 354 355 358 1 359 352 347 346 348 348 347 344 344 348 349 344 331 316 300 296 303 320 3 353 329 305 282 272 269 263 258 261 263 255 250 249 247 248 252 254 255 253 245 240 235 231 229 227 225 226 228 230 231 233 233 231 229
292 295 298 300 302 303 304 307 311 314 318 322 324 327 332 336 340 343 345 344 343 341 342 345 350 353 353 352 352 354 356 357 356 351 344 342 346 346 343 340 342 348 353 353 350 342 329 316 304 287 284 301 308 300 291 289 281 265 257 257 257 250 249 252 249 246 250 252 251 248 245 241 235 229 225 222 221 225 232 235 233 230 231 235 237
294 295 298 300 299 302 305 309 313 317 321 325 329 332 337 340 342 345 349 348 345 345 346 345 345 345 345 347 349 352 352 351 349 345 339 336 339 343 342 342 344 349 351 352 354 353 346 336 319 296 284 285 287 284 287 296 298 282 271 268 260 249 245 249 249 244 238 234 234 235 233 232 230 227 223 221 220 224 233 238 238 235 237 243 244
291 291 293 295 299 304 309 314 317 321 325 329 332 335 339 341 343 346 347 346 346 345 344 342 340 339 341 343 345 345 345 345 346 345 343 340 337 336 337 336 334 336 339 339 340 342 342 338 330 318 301 291 285 279 280 285 287 284 281 280 272 257 249 248 250 249 243 229 220 220 221 221 223 223 221 219 221 226 232 236 238 241 246 249 248
281 284 289 299 308 314 317 320 323 327 330 334 337 341 346 349 349 349 349 349 349 347 344 341 340 340 341 343 345 345 344 345 346 347 348 347 344 342 340 338 335 335 335 335 334 331 331 330 329 327 321 311 301 291 286 285 285 283 281 280 280 276 273 272 267 262 257 248 236 229 225 220 218 219 222 226 228 229 230 233 237 243 248 250 250
274 283 298 312 318 322 325 328 333 338 340 343 349 354 358 358 358 359 358 358 357 355 353 351 351 352 353 354 354 355 356 357 356 356 354 352 350 348 346 344 344 343 341 338 335 332 329 329 329 327 325 322 317 310 304 299 296 292 288 285 286 287 288 289 287 280 273 266 259 255 249 240 233 229 228 229 229 227 228 233 240 245 249 251 252
269 289 314 324 325 330 337 343 348 349 351 356 2 4 3 2 3 3 1 1 360 357 355 356 358 0 2 3 4 4 5 6 6 4 2 360 357 354 352 350 348 347 343 339 336 333 331 329 328 325 320 315 308 303 299 297 297 297 294 291 290 290 289 289 289 288 286 282 276 270 262 253 246 240 235 233 233 235 239 247 253 253 252 252 254
258 305 327 332 334 340 347 352 357 359 1 5 7 4 360 360 1 0 360 1 1 358 359 2 5 7 7 8 11 12 15 16 15 13 10 8 5 1 358 356 354 350 348 344 340 335 330 325 322 317 312 307 301 295 290 284 282 283 285 286 287 286 284 283 282 281 281 281 278 273 267 261 257 254 252 251 252 254 254 256 259 260 258 255 256
233 335 338 338 339 347 357 2 4 2 1 2 3 1 1 6 12 13 15 18 17 17 21 23 25 25 24 25 25 26 26 25 22 20 18 15 12 9 6 4 1 358 354 351 348 344 340 335 329 322 314 308 304 300 297 293 288 283 281 281 283 283 282 280 279 278 279 278 278 277 275 273 271 269 269 269 269 267 263 259 258 260 259 257 257
198 282 325 329 337 352 359 358 357 358 360 5 14 20 28 38 41 39 38 38 39 40 40 39 39 38 37 37 35 32 29 26 23 20 19 16 14 12 10 9 6 3 0 357 353 350 347 344 340 335 330 324 318 312 307 303 301 298 294 291 289 287 287 284 282 280 281 281 281 280 279 278 277 276 275 274 272 269 266 263 261 260 259 257 255
183 188 285 314 325 337 345 351 2 18 34 51 56 55 57 59 56 53 52 52 51 49 47 44 43 43 41 39 36 33 29 25 23 21 18 16 14 13 11 10 7 5 3 1 357 354 351 349 346 343 339 336 334 330 326 322 319 314 310 305 301 298 295 292 288 282 278 275 274 273 272 272 271 271 271 270 268 265 264 264 262 259 256 253 250
180 207 281 304 314 331 360 35 61 71 73 72 68 64 63 65 63 61 60 59 57 54 50 48 46 45 43 39 36 32 29 27 25 23 20 17 14 13 11 10 9 8 6 4 2 0 357 353 349 346 343 342 340 339 336 333 331 328 324 319 314 310 305 300 294 288 280 272 267 264 262 261 262 264 266 267 267 265 263 262 260 257 253 250 245
210 253 286 299 321 59 87 91 88 84 79 75 74 73 73 72 71 68 66 63 59 56 53 50 48 48 45 41 38 35 33 32 30 27 22 18 15 13 11 10 10 10 9 9 8 5 1 356 350 346 344 342 341 340 339 338 336 335 333 331 328 326 321 315 308 300 292 283 274 268 264 262 261 262 264 266 267 265 263 260 258 256 253 249 245
258 268 257 153 123 112 104 99 94 89 86 85 86 86 84 81 76 72 68 65 61 57 54 51 50 50 48 44 41 38 36 35 33 28 24 21 18 15 12 11 11 10 9 11 10 7 3 359 355 352 349 346 343 341 340 340 340 339 337 336 336 337 337 333 327 320 312 304 296 286 277 271 268 264 262 258 253 253 257 256 252 253 256 255 252
260 227 143 125 119 114 107 102 100 96 94 95 95 91 86 82 78 73 68 64 61 56 53 49 46 45 43 42 39 37 36 35 33 30 27 24 20 17 15 13 11 9 9 10 8 7 8 7 4 0 357 354 350 347 344 343 344 344 344 342 342 343 343 342 340 336 330 323 318 313 304 295 286 277 267 251 236 237 244 234 210 216 246 269 270
169 155 140 126 117 112 107 104 103 101 98 96 94 89 83 77 74 71 66 61 56 50 47 44 41 38 36 35 34 33 34 34 33 32 31 29 26 23 20 17 13 10 8 8 7 8 11 12 9 6 3 360 356 353 349 347 346 347 347 347 348 347 346 344 343 341 338 336 336 333 327 321 314 300 286 260 237 234 229 200 178 181 194 223 288
157 151 143 130 119 111 107 106 104 100 96 91 85 82 78 71 66 64 61 56 50 42 37 36 36 35 32 29 27 26 28 30 30 30 31 31 30 29 26 23 19 13 9 9 9 10 12 13 12 10 7 4 1 358 354 351 349 348 348 349 351 352 350 348 347 345 345 345 344 340 337 338 341 336 324 305 254 225 194 176 176 186 199 219 295
154 145 138 131 127 123 118 114 109 102 96 86 71 68 69 65 58 53 52 51 46 38 31 28 29 31 30 27 24 23 23 24 25 26 26 28 29 29 28 26 23 18 14 14 14 13 12 12 12 11 9 8 5 2 359 355 352 349 348 348 351 354 355 354 353 352 353 352 347 344 349 357 1 4 20 45 67 83 111 137 154 172 199 241 296
147 138 134 131 130 129 128 126 123 117 111 101 70 52 58 64 58 47 43 47 45 37 30 26 24 26 28 26 24 25 25 24 24 24 24 24 26 27 26 26 25 23 21 21 21 18 16 13 12 11 11 9 7 5 4 360 356 352 350 349 350 353 355 358 358 358 358 355 350 351 359 9 10 14 32 49 62 79 104 129 151 180 213 232 253
141 137 136 135 132 130 131 133 131 121 110 93 59 33 37 49 51 41 40 45 45 38 30 26 24 24 24 25 25 26 26 26 26 26 23 23 24 23 23 25 27 26 25 25 25 24 20 16 14 13 12 10 9 8 6 4 0 356 353 351 350 351 355 358 358 358 359 355 351 353 0 9 14 15 22 33 42 55 82 130 189 218 229 235 243
144 143 141 139 136 133 137 154 162 127 84 60 36 17 11 14 22 28 29 30 33 32 28 25 24 22 21 21 23 26 26 26 25 24 22 22 21 19 21 24 25 25 25 26 26 25 23 21 18 17 15 12 11 10 8 6 4 1 358 354 351 350 354 357 356 355 354 350 345 343 344 348 355 357 1 7 8 3 7 12 233 230 239 248 251
149 149 148 148 149 158 185 214 234 272 353 23 24 21 16 10 13 19 18 13 16 21 22 23 23 22 20 19 20 22 24 24 21 19 19 20 20 18 19 21 22 22 24 25 24 24 24 22 21 20 18 15 13 12 11 8 5 3 1 358 354 351 351 352 351 347 343 338 335 332 331 330 328 321 317 315 308 296 289 288 281 264 253 253 255
154 156 160 165 172 184 207 230 256 304 334 360 18 26 24 14 14 12 2 356 5 15 20 23 24 22 22 22 22 21 21 20 17 16 16 18 20 21 20 19 18 19 22 23 23 23 24 22 21 20 19 16 14 13 12 10 7 6 5 2 358 353 350 347 344 338 331 328 328 327 325 320 313 303 294 281 270 266 263 262 263 265 262 256 250
162 165 171 182 192 198 209 230 262 309 332 349 9 13 2 357 3 359 343 342 358 9 14 21 24 23 24 26 24 22 20 18 16 15 14 14 16 20 21 19 17 17 20 21 21 22 23 23 21 19 17 15 13 13 13 11 8 7 7 5 2 358 353 349 344 338 330 324 322 323 319 311 306 305 307 300 285 276 270 260 251 252 258 255 243
173 178 185 193 201 205 210 223 245 305 325 334 354 3 347 340 349 349 335 337 353 2 4 10 17 22 26 27 25 22 20 18 16 14 13 12 12 13 15 16 15 16 18 18 18 20 22 22 22 20 17 13 11 11 11 11 9 7 6 5 5 3 358 354 350 344 336 329 323 313 305 306 312 320 325 324 312 293 279 268 254 248 249 249 241
187 194 199 204 211 215 213 218 248 303 320 325 340 355 344 338 345 348 340 340 351 358 359 360 4 12 22 26 25 22 20 18 16 12 11 12 12 9 9 11 12 13 14 14 14 15 17 18 19 18 16 13 11 10 9 8 7 6 5 4 5 5 2 359 356 353 347 339 331 318 296 289 297 306 313 317 318 308 282 266 260 255 254 254 251
198 208 213 215 215 212 208 221 299 323 329 329 336 350 351 344 341 341 340 343 351 358 359 355 355 4 17 24 24 22 20 18 15 12 10 12 12 9 6 7 7 9 11 11 11 12 12 12 13 13 11 10 10 10 8 6 4 2 2 1 2 2 2 0 359 358 356 350 342 335 323 300 285 290 300 307 311 308 288 265 259 259 260 261 260
200 207 214 221 226 231 241 265 293 317 335 336 336 341 342 336 330 330 334 339 347 354 1 2 360 5 16 22 23 21 19 17 17 15 11 11 11 9 6 5 6 6 6 7 7 8 8 7 8 9 8 7 7 7 7 5 2 359 357 356 356 356 357 356 356 356 357 357 352 347 340 328 308 302 310 314 313 309 293 270 258 255 255 257 257
198 197 206 228 244 255 259 253 259 287 320 328 327 326 322 320 320 323 327 333 340 349 359 7 8 7 11 15 16 16 13 12 14 16 13 10 9 8 7 7 7 6 4 3 4 4 2 1 2 5 6 4 3 3 4 4 3 360 356 352 351 351 350 349 348 349 350 352 353 351 348 343 337 331 328 325 322 315 300 275 259 252 246 243 241
207 206 216 237 248 251 251 245 245 255 274 291 301 305 304 303 305 311 320 330 339 347 352 357 2 5 7 8 10 10 8 5 6 10 11 9 7 7 8 9 8 6 4 3 2 1 359 357 356 358 0 360 359 358 359 359 0 360 357 353 349 347 345 343 342 340 341 343 344 344 342 341 340 336 332 329 327 319 304 282 263 251 239 231 230
222 223 226 232 235 238 243 246 248 255 264 273 281 291 298 301 301 307 319 331 339 343 345 347 351 357 0 1 4 6 5 1 359 2 5 6 6 6 7 8 8 7 5 3 1 1 0 357 352 350 352 353 354 355 355 355 356 357 358 356 352 347 343 341 339 336 332 331 333 334 335 333 330 327 326 325 323 317 306 285 260 241 228 226 231
225 226 225 225 228 234 241 248 256 269 283 289 284 287 298 308 312 316 324 331 334 337 340 342 344 347 350 353 356 360 360 356 354 356 360 3 5 5 4 5 7 8 7 4 1 0 0 357 350 346 346 347 350 351 352 352 352 353 355 355 353 349 344 340 338 336 333 326 321 320 322 324 324 321 317 313 309 306 299 280 255 236 223 222 229
231 232 231 230 238 245 249 253 255 260 274 287 288 292 302 312 316 318 321 323 325 329 334 339 340 340 341 343 347 351 351 350 350 352 354 356 359 1 1 2 3 5 6 5 2 1 360 358 352 346 343 343 344 346 348 349 349 349 350 351 351 350 347 343 338 335 334 330 323 315 310 309 312 314 311 306 300 294 285 270 253 242 233 228 229
240 245 248 252 257 259 262 267 266 263 266 272 275 283 295 302 307 312 314 314 317 322 328 332 332 331 332 334 336 340 342 342 343 346 348 349 352 355 356 357 358 358 359 1 2 0 360 359 356 352 349 345 342 341 343 346 346 345 345 346 346 346 347 345 341 336 332 330 328 322 313 304 301 302 303 302 296 288 276 263 252 247 242 237 233
245 253 259 260 260 261 267 273 274 271 269 268 267 272 278 284 290 297 300 302 307 313 318 320 320 321 323 323 324 328 333 335 336 338 340 343 346 348 350 351 352 352 353 355 357 357 356 356 356 356 354 351 346 343 341 342 342 342 341 342 343 342 343 343 342 340 336 331 328 326 321 313 303 297 295 296 294 287 274 260 251 249 247 244 240
Height
3142 3142 3142 3142 3141 3140 3140 3139 3138 3137 3136 3134 3133 3131 3130 3128 3126 3123 3121 3118 3115 3112 3109 3107 3104 3101 3099 3096 3094 3092 3090 3088 3086 3084 3083 3082 3081 3080 3079 3079 3079 3079 3078 3077 3076 3076 3076 3076 3077 3078 3078 3079 3081 3082 3083 3084 3086 3087 3089 3091 3092 3094 3096 3098 3100 3102 3103 3105 3107 3108 3109 3111 3112 3113 3114 3115 3117 3118 3120 3121 3122 3123 3124 3124 3125
3141 3141 3141 3140 3140 3139 3138 3138 3137 3136 3135 3133 3131 3130 3128 3126 3124 3122 3120 3117 3114 3111 3108 3106 3103 3101 3098 3096 3094 3092 3090 3088 3086 3084 3083 3082 3081 3080 3079 3078 3078 3078 3077 3075 3074 3074 3074 3074 3075 3076 3076 3077 3078 3080 3081 3082 3083 3085 3086 3088 3089 3091 3093 3096 3098 3099 3102 3104 3105 3106 3107 3109 3110 3112 3112 3113 3115 3116 3118 3119 3120 3121 3122 3122 3123
3140 3139 3139 3139 3139 3138 3137 3136 3136 3135 3133 3132 3130 3129 3127 3125 3123 3121 3118 3115 3113 3110 3107 3105 3103 3100 3098 3096 3094 3092 3090 3088 3086 3085 3084 3083 3082 3081 3080 3079 3078 3077 3076 3074 3073 3073 3072 3072 3073 3074 3075 3075 3077 3079 3081 3081 3082 3083 3084 3085 3087 3089 3091 3094 3095 3097 3100 3102 3103 3104 3106 3107 3109 3110 3110 3111 3111 3113 3116 3117 3117 3119 3119 3120 3121
3138 3138 3138 3138 3137 3136 3136 3135 3134 3133 3132 3130 3129 3127 3125 3124 3122 3119 3117 3114 3112 3109 3107 3104 3102 3100 3097 3095 3093 3091 3090 3088 3087 3086 3085 3083 3082 3081 3080 3079 3078 3078 3077 3075 3074 3073 3072 3072 3072 3073 3074 3075 3076 3077 3078 3079 3079 3080 3082 3083 3085 3087 3089 3092 3093 3095 3098 3100 3102 3104 3105 3106 3107 3107 3108 3108 3109 3111 3113 3114 3115 3116 3117 3118 3119
3137 3137 3137 3136 3136 3135 3134 3134 3133 3132 3131 3129 3128 3126 3124 3122 3120 3118 3116 3113 3111 3109 3106 3104 3102 3100 3097 3095 3093 3091 3090 3089 3088 3087 3085 3084 3082 3081 3081 3080 3079 3078 3078 3077 3075 3074 3074 3073 3073 3074 3074 3074 3074 3075 3076 3076 3077 3078 3080 3082 3084 3086 3087 3090 3092 3093 3096 3098 3099 3101 3102 3103 3104 3105 3106 3107 3108 3109 3110 3111 3113 3114 3114 3116 3117
3136 3136 3136 3135 3134 3133 3132 3132 3131 3130 3129 3128 3126 3125 3123 3121 3119 3117 3115 3113 3110 3108 3106 3104 3102 3099 3097 3095 3093 3091 3090 3089 3088 3087 3086 3084 3083 3082 3081 3080 3079 3079 3078 3078 3077 3076 3075 3074 3074 3074 3074 3074 3074 3075 3076 3076 3076 3078 3079 3081 3083 3085 3087 3089 3091 3092 3094 3096 3097 3098 3100 3101 3102 3103 3105 3105 3106 3107 3108 3109 3110 3111 3112 3113 3115
3134 3134 3134 3133 3133 3132 3131 3130 3130 3129 3128 3127 3125 3124 3122 3120 3118 3116 3114 3112 3110 3107 3105 3103 3102 3099 3097 3095 3093 3092 3091 3089 3088 3087 3086 3085 3084 3082 3081 3081 3080 3079 3078 3078 3077 3076 3076 3075 3075 3075 3075 3075 3075 3075 3076 3076 3077 3078 3080 3081 3083 3085 3087 3089 3090 3091 3093 3094 3095 3097 3098 3099 3099 3100 3102 3102 3103 3105 3106 3107 3108 3109 3110 3111 3112
3133 3133 3132 3132 3131 3130 3129 3129 3128 3127 3126 3125 3124 3122 3121 3119 3117 3115 3113 3111 3109 3107 3105 3103 3101 3099 3097 3095 3094 3092 3091 3089 3088 3087 3086 3085 3085 3083 3082 3081 3081 3080 3079 3078 3078 3077 3077 3076 3076 3075 3076 3076 3076 3076 3076 3076 3077 3078 3080 3081 3082 3083 3086 3088 3089 3090 3091 3092 3094 3095 3096 3096 3096 3098 3099 3100 3101 3102 3103 3104 3106 3107 3108 3109 3110
3131 3131 3131 3130 3129 3129 3128 3127 3126 3126 3125 3124 3122 3121 3119 3117 3116 3114 3112 3110 3108 3106 3104 3102 3100 3098 3097 3095 3094 3092 3091 3089 3088 3087 3086 3085 3085 3084 3083 3083 3082 3081 3080 3079 3078 3078 3077 3077 3076 3076 3077 3077 3077 3077 3077 3077 3077 3078 3079 3080 3081 3082 3084 3086 3087 3088 3088 3089 3091 3092 3093 3094 3095 3096 3097 3098 3099 3100 3101 3102 3103 3104 3105 3106 3108
3130 3130 3129 3129 3128 3127 3126 3126 3125 3124 3123 3122 3121 3120 3118 3116 3114 3113 3111 3109 3107 3105 3103 3101 3099 3098 3097 3095 3094 3092 3091 3089 3088 3087 3086 3085 3084 3084 3083 3083 3082 3081 3080 3079 3079 3078 3078 3077 3077 3077 3077 3077 3077 3077 3077 3077 3078 3078 3078 3080 3080 3081 3082 3084 3084 3085 3086 3087 3087 3089 3090 3091 3092 3093 3095 3096 3097 3097 3099 3100 3101 3101 3102 3103 3105
3129 3128 3128 3128 3127 3126 3125 3124 3123 3123 3122 3121 3119 3118 3117 3115 3113 3112 3110 3108 3106 3104 3102 3100 3099 3097 3096 3095 3093 3092 3090 3089 3088 3087 3086 3085 3084 3083 3083 3082 3082 3081 3080 3080 3079 3078 3078 3077 3077 3077 3077 3077 3077 3077 3077 3077 3077 3077 3078 3078 3079 3080 3081 3081 3082 3082 3083 3084 3085 3086 3087 3088 3089 3090 3092 3093 3094 3094 3097 3098 3098 3099 3100 3102 3103
3127 3127 3127 3126 3125 3124 3124 3123 3122 3121 3120 3119 3118 3117 3115 3114 3112 3110 3109 3107 3105 3103 3102 3100 3098 3096 3094 3093 3093 3092 3090 3089 3088 3087 3086 3085 3084 3083 3083 3082 3082 3081 3080 3080 3079 3078 3077 3077 3076 3076 3076 3076 3076 3076 3076 3076 3076 3077 3077 3077 3077 3078 3079 3079 3080 3080 3080 3082 3083 3084 3084 3085 3087 3088 3089 3090 3091 3092 3095 3096 3097 3097 3099 3100 3101
3126 3126 3125 3125 3124 3123 3122 3121 3121 3120 3119 3118 3117 3115 3114 3113 3111 3109 3108 3106 3104 3103 3101 3099 3097 3096 3094 3093 3092 3091 3090 3088 3087 3086 3085 3084 3084 3083 3083 3082 3081 3081 3080 3080 3079 3078 3077 3076 3076 3076 3075 3075 3074 3075 3075 3075 3074 3074 3075 3076 3076 3077 3077 3077 3078 3079 3079 3080 3081 3082 3082 3084 3085 3086 3086 3087 3088 3090 3092 3094 3095 3096 3097 3098 3099
3124 3124 3124 3123 3122 3121 3121 3120 3119 3118 3117 3116 3115 3114 3113 3111 3110 3108 3106 3105 3103 3102 3100 3099 3097 3096 3094 3093 3092 3090 3089 3088 3087 3086 3085 3085 3084 3083 3082 3082 3081 3080 3080 3080 3079 3078 3077 3076 3075 3075 3075 3074 3074 3074 3074 3073 3073 3073 3074 3074 3075 3076 3076 3076 3076 3077 3078 3078 3079 3080 3080 3081 3082 3083 3084 3085 3086 3087 3089 3091 3093 3094 3095 3096 3097
3123 3123 3122 3121 3121 3120 3119 3118 3118 3117 3116 3115 3114 3113 3112 3110 3109 3107 3106 3104 3103 3101 3099 3098 3097 3095 3094 3093 3091 3090 3089 3088 3087 3086 3086 3085 3084 3083 3082 3081 3080 3079 3079 3079 3078 3078 3077 3076 3075 3074 3074 3074 3073 3073 3073 3072 3072 3072 3073 3073 3074 3075 3075 3075 3075 3076 3076 3076 3077 3077 3077 3078 3080 3081 3082 3083 3084 3085 3086 3088 3089 3090 3092 3092 3093
3121 3121 3120 3120 3119 3118 3118 3117 3116 3116 3115 3114 3113 3112 3110 3109 3108 3106 3105 3103 3102 3100 3099 3098 3096 3095 3093 3092 3091 3090 3089 3088 3087 3086 3086 3085 3084 3083 3082 3081 3080 3079 3078 3078 3077 3077 3076 3075 3075 3074 3073 3073 3072 3072 3072 3072 3072 3072 3072 3072 3073 3074 3074 3074 3075 3075 3075 3075 3075 3075 3075 3077 3078 3079 3080 3081 3082 3082 3082 3084 3085 3086 3087 3089 3090
3120 3119 3119 3118 3118 3117 3116 3116 3115 3114 3113 3113 3112 3111 3109 3108 3107 3105 3104 3103 3101 3100 3099 3098 3097 3095 3094 3092 3091 3089 3088 3088 3087 3086 3085 3084 3084 3083 3082 3081 3079 3078 3077 3077 3076 3075 3075 3074 3074 3074 3073 3072 3071 3071 3071 3070 3070 3071 3071 3071 3071 3072 3072 3072 3073 3073 3074 3074 3074 3075 3074 3075 3076 3077 3078 3079 3080 3080 3081 3082 3082 3083 3084 3085 3087
3118 3118 3117 3117 3116 3116 3115 3114 3114 3113 3112 3111 3111 3110 3108 3107 3106 3105 3103 3102 3101 3100 3099 3098 3097 3095 3094 3093 3092 3090 3089 3088 3087 3086 3085 3084 3083 3083 3082 3081 3079 3078 3077 3076 3075 3075 3074 3073 3073 3073 3072 3072 3071 3071 3070 3069 3069 3069 3069 3069 3070 3070 3070 3070 3071 3071 3071 3072 3073 3073 3073 3073 3073 3074 3075 3076 3077 3078 3079 3080 3081 3081 3081 3083 3084
3116 3116 3116 3115 3115 3114 3114 3113 3113 3112 3111 3110 3109 3109 3108 3106 3105 3104 3103 3102 3101 3100 3098 3097 3096 3095 3094 3093 3092 3090 3089 3088 3087 3086 3085 3084 3083 3082 3081 3080 3079 3078 3077 3076 3075 3074 3074 3073 3072 3072 3072 3071 3071 3070 3070 3069 3068 3068 3068 3068 3068 3068 3068 3069 3069 3069 3069 3069 3070 3071 3071 3071 3072 3072 3073 3073 3074 3075 3077 3078 3078 3079 3079 3080 3081
3115 3114 3114 3114 3113 3113 3113 3112 3111 3111 3110 3109 3109 3108 3107 3106 3105 3103 3102 3101 3100 3099 3098 3097 3096 3095 3094 3093 3092 3090 3089 3088 3087 3086 3085 3084 3083 3082 3080 3079 3078 3077 3076 3076 3075 3074 3073 3072 3072 3071 3071 3070 3070 3070 3069 3068 3068 3067 3067 3066 3066 3066 3066 3066 3066 3066 3067 3067 3067 3067 3068 3068 3069 3070 3070 3071 3072 3072 3073 3074 3075 3076 3076 3077 3078
3114 3113 3113 3113 3112 3112 3112 3111 3111 3110 3109 3109 3108 3107 3106 3105 3104 3103 3102 3101 3100 3099 3098 3097 3096 3095 3094 3093 3091 3090 3089 3088 3087 3085 3084 3083 3082 3081 3080 3079 3078 3077 3076 3075 3074 3073 3072 3071 3071 3070 3069 3069 3068 3068 3068 3067 3067 3066 3066 3065 3065 3064 3064 3064 3064 3063 3064 3064 3065 3065 3065 3065 3066 3066 3067 3068 3069 3069 3070 3071 3072 3073 3073 3074 3075
3113 3112 3112 3112 3112 3111 3111 3110 3110 3109 3109 3108 3107 3106 3105 3104 3104 3103 3102 3101 3100 3099 3098 3097 3096 3095 3094 3093 3092 3090 3089 3088 3086 3085 3084 3083 3081 3080 3079 3078 3077 3076 3075 3074 3073 3072 3071 3070 3069 3069 3068 3068 3067 3067 3066 3065 3065 3064 3064 3063 3063 3063 3062 3062 3061 3061 3061 3061 3062 3062 3062 3063 3063 3063 3063 3064 3064 3066 3067 3067 3068 3069 3070 3071 3071
3112 3112 3112 3111 3111 3111 3111 3110 3110 3109 3108 3108 3107 3106 3105 3104 3104 3103 3102 3101 3100 3099 3098 3097 3096 3095 3094 3093 3092 3090 3089 3088 3087 3085 3084 3083 3081 3080 3079 3078 3076 3075 3074 3073 3072 3071 3070 3069 3068 3068 3067 3067 3066 3066 3065 3064 3063 3062 3062 3062 3061 3061 3060 3059 3059 3058 3058 3058 3059 3059 3059 3060 3060 3060 3060 3060 3061 3062 3063 3064 3064 3065 3066 3066 3066
3111 3111 3111 3111 3111 3111 3110 3110 3109 3109 3108 3107 3107 3106 3105 3104 3103 3103 3102 3101 3100 3099 3098 3097 3096 3095 3094 3093 3092 3090 3089 3088 3087 3085 3084 3083 3081 3080 3079 3077 3076 3075 3074 3073 3072 3070 3069 3068 3067 3067 3066 3065 3065 3064 3063 3063 3062 3061 3060 3060 3059 3059 3058 3057 3056 3055 3055 3055 3056 3056 3056 3057 3057 3057 3057 3057 3058 3058 3059 3059 3060 3060 3061 3061 3062
3111 3111 3111 3111 3111 3111 3110 3110 3109 3109 3108 3107 3107 3106 3105 3104 3104 3103 3102 3101 3100 3099 3098 3097 3096 3095 3094 3093 3092 3090 3089 3088 3086 3085 3084 3083 3081 3080 3078 3077 3076 3075 3073 3072 3071 3070 3069 3068 3066 3065 3065 3064 3063 3062 3061 3060 3060 3059 3058 3057 3057 3056 3055 3055 3054 3053 3052 3052 3052 3052 3053 3053 3053 3053 3053 3054 3054 3054 3055 3055 3055 3056 3056 3057 3057
3111 3111 3111 3111 3111 3110 3110 3110 3109 3109 3108 3107 3107 3106 3105 3105 3104 3103 3102 3102 3101 3100 3099 3098 3097 3096 3095 3093 3092 3090 3089 3088 3086 3085 3083 3082 3081 3079 3078 3076 3075 3074 3073 3071 3070 3069 3068 3067 3066 3064 3063 3062 3061 3060 3059 3058 3057 3056 3055 3055 3054 3053 3052 3052 3051 3051 3050 3049 3049 3049 3049 3049 3049 3049 3049 3050 3050 3050 3050 3051 3051 3051 3051 3052 3053
3111 3111 3111 3111 3111 3110 3110 3110 3109 3109 3108 3108 3107 3106 3106 3105 3105 3104 3103 3102 3101 3100 3099 3098 3097 3096 3095 3093 3092 3091 3089 3088 3087 3085 3084 3082 3081 3079 3077 3076 3075 3073 3072 3071 3070 3069 3067 3066 3065 3063 3062 3061 3060 3058 3057 3056 3055 3054 3053 3052 3051 3050 3050 3049 3048 3048 3048 3047 3047 3046 3046 3046 3045 3045 3045 3046 3046 3046 3046 3046 3046 3046 3047 3048 3049
3111 3111 3111 3111 3111 3110 3110 3110 3110 3109 3109 3108 3107 3107 3106 3106 3105 3105 3104 3103 3102 3101 3100 3099 3098 3097 3095 3094 3093 3092 3091 3089 3088 3086 3084 3083 3081 3079 3078 3076 3075 3073 3072 3070 3069 3067 3066 3065 3064 3062 3061 3060 3059 3057 3056 3055 3053 3052 3051 3050 3049 3048 3047 3046 3046 3046 3045 3045 3045 3044 3044 3044 3043 3043 3042 3042 3042 3042 3042 3042 3042 3042 3042 3043 3044
3111 3111 3111 3111 3111 3111 3110 3110 3110 3110 3109 3109 3108 3108 3108 3107 3107 3106 3105 3104 3103 3102 3101 3100 3099 3098 3097 3096 3095 3094 3092 3091 3089 3087 3085 3084 3082 3080 3078 3076 3075 3073 3071 3070 3068 3067 3066 3064 3063 3062 3061 3060 3058 3057 3055 3054 3053 3051 3050 3048 3047 3046 3045 3045 3044 3044 3043 3043 3042 3042 3042 3041 3041 3041 3040 3040 3039 3039 3038 3039 3039 3039 3039 3039 3040
3110 3111 3111 3111 3111 3111 3111 3111 3111 3110 3110 3110 3109 3109 3109 3108 3108 3107 3106 3105 3104 3103 3102 3101 3100 3099 3098 3097 3096 3095 3093 3091 3089 3088 3086 3084 3082 3080 3079 3077 3075 3073 3071 3070 3068 3067 3066 3064 3063 3061 3060 3059 3057 3056 3055 3053 3052 3050 3049 3048 3047 3046 3045 3044 3042 3042 3041 3041 3040 3040 3039 3039 3039 3038 3038 3038 3037 3036 3036 3037 3037 3037 3037 3037 3038
3110 3110 3111 3111 3111 3111 3111 3111 3111 3111 3111 3111 3110 3110 3110 3109 3109 3108 3107 3106 3105 3104 3103 3102 3101 3100 3099 3098 3096 3095 3093 3092 3090 3089 3087 3085 3083 3081 3079 3077 3075 3074 3072 3070 3069 3068 3066 3064 3062 3061 3059 3058 3057 3055 3054 3052 3051 3050 3049 3047 3046 3045 3044 3043 3042 3040 3040 3039 3038 3038 3038 3037 3037 3036 3036 3036 3036 3036 3036 3037 3037 3037 3037 3037 3037
3110 3110 3111 3111 3111 3111 3111 3112 3112 3112 3112 3111 3111 3111 3110 3110 3109 3109 3108 3107 3106 3105 3104 3103 3102 3101 3100 3098 3097 3095 3094 3093 3091 3090 3088 3086 3084 3082 3080 3078 3076 3074 3072 3071 3070 3068 3066 3064 3062 3060 3059 3058 3056 3055 3053 3052 3051 3049 3048 3047 3046 3045 3043 3042 3041 3040 3039 3038 3038 3037 3037 3036 3036 3035 3035 3035 3035 3036 3036 3037 3038 3038 3038 3038 3039
3110 3111 3111 3111 3112 3112 3112 3112 3113 3113 3112 3112 3111 3111 3111 3111 3110 3110 3109 3108 3107 3106 3105 3104 3103 3101 3100 3099 3097 3096 3094 3093 3092 3090 3089 3087 3085 3083 3081 3079 3077 3075 3073 3072 3070 3068 3066 3064 3063 3061 3059 3058 3056 3055 3053 3052 3051 3049 3048 3047 3046 3045 3043 3042 3041 3040 3039 3038 3038 3037 3037 3036 3036 3035 3035 3035 3035 3036 3036 3037 3038 3039 3040 3040 3040
3111 3111 3112 3112 3113 3113 3113 3113 3113 3113 3113 3112 3112 3112 3112 3111 3111 3110 3109 3108 3107 3106 3105 3104 3103 3102 3101 3099 3098 3096 3095 3093 3092 3090 3089 3087 3086 3084 3082 3080 3078 3076 3074 3072 3070 3068 3066 3065 3063 3061 3060 3058 3057 3055 3054 3052 3051 3049 3048 3047 3046 3045 3044 3043 3042 3041 3040 3039 3038 3037 3037 3037 3036 3036 3036 3035 3036 3036 3037 3037 3038 3040 3040 3041 3041
3111 3112 3112 3113 3113 3113 3114 3114 3114 3114 3114 3113 3113 3112 3112 3112 3111 3110 3110 3109 3108 3107 3105 3104 3103 3102 3101 3100 3099 3097 3096 3094 3092 3091 3089 3088 3086 3084 3083 3082 3080 3077 3075 3073 3071 3069 3067 3065 3064 3062 3060 3059 3057 3055 3054 3053 3051 3050 3049 3047 3046 3045 3044 3043 3042 3042 3041 3040 3039 3038 3038 3038 3037 3037 3037 3036 3036 3037 3037 3038 3039 3040 3041 3041 3041
3111 3112 3112 3113 3113 3113 3114 3114 3114 3114 3114 3114 3113 3113 3112 3112 3111 3111 3110 3109 3108 3107 3106 3105 3103 3102 3101 3100 3099 3098 3096 3095 3093 3091 3090 3088 3086 3085 3084 3082 3080 3078 3075 3073 3072 3070 3068 3066 3065 3063 3061 3059 3058 3056 3054 3053 3052 3050 3049 3048 3047 3046 3045 3044 3043 3042 3041 3040 3040 3039 3039 3038 3038 3038 3038 3037 3037 3037 3037 3038 3038 3039 3040 3041 3041
3111 3112 3112 3113 3113 3114 3114 3114 3114 3114 3114 3114 3114 3113 3112 3112 3111 3110 3109 3108 3108 3107 3106 3105 3103 3102 3101 3100 3099 3097 3096 3095 3093 3091 3090 3088 3087 3085 3084 3082 3080 3078 3076 3074 3072 3071 3069 3067 3066 3064 3062 3060 3058 3057 3055 3053 3052 3051 3049 3048 3047 3046 3045 3044 3043 3042 3042 3041 3040 3039 3039 3039 3038 3038 3038 3038 3038 3038 3038 3038 3038 3039 3039 3040 3041
3111 3112 3113 3113 3114 3114 3114 3114 3114 3114 3114 3114 3114 3113 3112 3111 3111 3110 3109 3108 3107 3106 3105 3104 3103 3102 3101 3100 3098 3097 3096 3094 3093 3092 3091 3089 3087 3085 3083 3081 3080 3078 3076 3074 3073 3071 3069 3068 3066 3065 3063 3061 3059 3058 3056 3054 3053 3051 3050 3049 3047 3046 3045 3044 3043 3042 3041 3041 3040 3040 3039 3039 3039 3038 3038 3038 3038 3038 3038 3038 3038 3039 3039 3040 3040
3112 3112 3113 3113 3114 3114 3114 3114 3114 3114 3114 3113 3113 3113 3112 3111 3110 3110 3109 3108 3107 3107 3106 3105 3104 3102 3101 3100 3098 3097 3096 3095 3094 3093 3091 3089 3088 3086 3083 3082 3080 3079 3077 3075 3073 3072 3070 3068 3067 3065 3063 3062 3060 3058 3057 3055 3054 3052 3051 3049 3048 3047 3046 3044 3043 3042 3041 3041 3040 3040 3039 3039 3038 3038 3038 3038 3038 3038 3038 3038 3038 3039 3039 3039 3040
3112 3112 3113 3113 3114 3114 3114 3114 3114 3114 3113 3113 3113 3112 3112 3111 3110 3110 3109 3108 3107 3107 3106 3105 3104 3103 3101 3100 3099 3098 3097 3095 3094 3093 3091 3089 3087 3086 3084 3083 3081 3079 3077 3076 3074 3073 3071 3069 3067 3065 3064 3062 3061 3059 3058 3056 3055 3053 3051 3050 3049 3047 3046 3045 3044 3042 3041 3041 3040 3040 3039 3039 3038 3038 3038 3038 3038 3038 3038 3037 3038 3038 3038 3039 3039
3112 3112 3113 3113 3114 3114 3114 3114 3114 3113 3113 3112 3112 3112 3111 3111 3110 3110 3109 3108 3107 3107 3106 3105 3104 3103 3101 3100 3099 3098 3097 3095 3094 3092 3091 3089 3087 3086 3084 3083 3081 3079 3078 3076 3075 3073 3071 3070 3068 3066 3064 3063 3061 3060 3058 3057 3055 3054 3052 3051 3049 3048 3046 3045 3044 3043 3042 3041 3040 3040 3039 3039 3038 3038 3038 3038 3038 3038 3038 3037 3037 3037 3038 3038 3039
3111 3112 3113 3113 3113 3113 3113 3113 3113 3113 3113 3112 3112 3111 3111 3110 3110 3109 3108 3108 3107 3106 3105 3104 3103 3102 3101 3100 3099 3098 3096 3095 3093 3092 3091 3089 3087 3085 3084 3083 3081 3080 3078 3076 3075 3073 3071 3070 3069 3067 3065 3064 3062 3060 3059 3057 3056 3054 3053 3051 3050 3048 3047 3046 3044 3043 3042 3041 3040 3040 3039 3039 3039 3038 3038 3038 3038 3038 3038 3037 3037 3037 3038 3038 3038
3111 3112 3113 3113 3113 3113 3113 3112 3112 3112 3112 3112 3111 3111 3110 3110 3109 3109 3108 3107 3106 3106 3105 3104 3103 3102 3101 3099 3098 3097 3096 3095 3093 3092 3091 3089 3087 3085 3084 3082 3081 3079 3078 3076 3075 3073 3071 3070 3069 3067 3066 3064 3062 3061 3059 3057 3056 3054 3053 3052 3050 3049 3048 3046 3045 3044 3043 3042 3041 3040 3039 3039 3038 3038 3038 3038 3038 3038 3038 3038 3038 3038 3038 3038 3038
3111 3112 3112 3112 3112 3112 3112 3112 3111 3111 3111 3111 3110 3110 3109 3109 3108 3108 3107 3107 3106 3105 3104 3103 3102 3101 3100 3099 3098 3097 3096 3094 3093 3092 3090 3089 3087 3086 3084 3082 3080 3079 3077 3076 3075 3073 3071 3070 3069 3067 3066 3064 3062 3061 3059 3057 3056 3054 3053 3052 3050 3049 3048 3047 3046 3044 3043 3042 3041 3040 3039 3038 3038 3038 3037 3037 3037 3037 3037 3037 3038 3038 3037 3037 3038
3111 3111 3111 3111 3111 3111 3111 3111 3111 3111 3110 3110 3110 3109 3109 3108 3108 3107 3107 3106 3105 3104 3103 3103 3102 3101 3099 3098 3097 3096 3095 3093 3092 3091 3090 3088 3087 3086 3084 3082 3081 3079 3077 3076 3074 3073 3071 3070 3068 3067 3066 3064 3062 3061 3059 3058 3056 3054 3053 3052 3050 3049 3048 3047 3046 3045 3044 3043 3042 3041 3040 3039 3038 3038 3037 3037 3037 3037 3036 3037 3037 3037 3037 3037 3037
3110 3110 3111 3111 3110 3111 3111 3111 3110 3110 3110 3110 3109 3109 3108 3108 3107 3106 3106 3105 3104 3103 3102 3101 3101 3100 3098 3097 3096 3095 3094 3092 3091 3090 3090 3088 3087 3086 3084 3082 3081 3079 3077 3076 3074 3073 3071 3069 3068 3066 3065 3064 3062 3061 3060 3058 3056 3055 3053 3052 3050 3049 3048 3047 3046 3045 3044 3043 3042 3041 3040 3039 3039 3038 3038 3037 3037 3036 3036 3036 3036 3036 3036 3037 3037
3109 3110 3110 3110 3110 3110 3110 3110 3110 3109 3109 3109 3108 3108 3108 3107 3106 3105 3104 3104 3103 3102 3101 3100 3099 3098 3097 3096 3095 3094 3093 3092 3091 3090 3089 3088 3086 3085 3084 3082 3081 3079 3077 3076 3074 3073 3071 3069 3067 3066 3065 3063 3062 3061 3059 3058 3056 3055 3053 3051 3050 3049 3047 3046 3045 3044 3043 3042 3041 3041 3040 3039 3038 3038 3037 3037 3036 3036 3036 3035 3035 3035 3035 3036 3036
3108 3108 3109 3109 3109 3109 3109 3109 3109 3108 3108 3108 3107 3107 3106 3106 3105 3104 3103 3102 3101 3100 3100 3099 3098 3097 3096 3095 3094 3093 3092 3091 3090 3089 3088 3087 3086 3084 3083 3082 3081 3079 3077 3076 3074 3072 3071 3069 3067 3066 3064 3063 3061 3060 3059 3057 3056 3054 3053 3051 3050 3048 3047 3046 3045 3044 3043 3042 3041 3040 3039 3038 3038 3037 3037 3036 3035 3035 3035 3035 3035 3034 3035 3035 3035
3107 3107 3107 3107 3107 3107 3108 3108 3107 3107 3107 3106 3106 3105 3105 3104 3103 3102 3101 3101 3100 3099 3098 3097 3096 3095 3094 3093 3092 3092 3091 3090 3089 3088 3087 3086 3085 3083 3082 3081 3080 3078 3077 3076 3074 3072 3070 3069 3067 3065 3064 3062 3061 3059 3058 3057 3055 3054 3053 3051 3050 3048 3047 3045 3044 3043 3042 3041 3040 3039 3038 3037 3037 3036 3036 3035 3034 3034 3034 3034 3034 3034 3034 3034 3034
3105 3105 3105 3105 3106 3106 3106 3106 3106 3106 3105 3105 3105 3104 3103 3103 3102 3101 3100 3099 3098 3097 3097 3096 3095 3094 3093 3092 3091 3090 3090 3089 3088 3087 3085 3084 3083 3082 3081 3080 3079 3078 3076 3075 3074 3072 3070 3068 3067 3065 3064 3062 3060 3059 3057 3056 3055 3054 3052 3051 3049 3048 3046 3045 3043 3042 3041 3040 3039 3038 3037 3036 3035 3035 3034 3034 3033 3033 3032 3032 3032 3032 3033 3033 3033
3103 3103 3103 3104 3104 3104 3104 3104 3104 3104 3103 3103 3103 3102 3102 3101 3100 3100 3099 3098 3097 3096 3095 3095 3094 3093 3092 3091 3090 3089 3088 3087 3086 3085 3084 3083 3082 3081 3080 3079 3077 3076 3075 3074 3073 3071 3070 3068 3067 3065 3063 3062 3060 3058 3057 3056 3054 3053 3052 3050 3049 3047 3046 3044 3043 3041 3040 3039 3038 3037 3036 3035 3034 3033 3033 3032 3032 3031 3031 3031 3031 3031 3031 3031 3032